Tracking 19490 objects as of 23-Jan-2019
HD Live streaming from Space Station
objects crossing your sky now

COSMOS 1723

Track COSMOS 1723 now!
10-day predictions
COSMOS 1723 is classified as:


NORAD ID: 16456
Int'l Code: 1986-002H
Perigee: 1,406.6 km
Apogee: 1,488.7 km
Inclination: 74.0 °
Period: 114.7 minutes
Semi major axis: 7818 km
RCS: 0.7097 m2 (medium)
Launch date: January 9, 1986
Source: Commonwealth of Independent States (former USSR) (CIS)
Launch site: PLESETSK MISSILE AND SPACE COMPLEX (PKMTR)
aabbcc
Your satellite tracking list
Your tracking list is empty




NASA's NSSDC Master Catalog

Two Line Element Set (TLE):
1 16456U 86002H   19022.69869132 -.00000002 +00000-0 +85557-4 0  9993
2 16456 073.9895 112.2789 0052534 189.5663 280.1436 12.55756690514383
Source of the keplerian elements: AFSPC